Cosmos 2084 - Orbit

View from above orbital plane
View from above orbital plane
View from above satellite
View from above satellite

Ground track
Ground track

The orbit data is extracted from the following two-line orbital elements,

1 20663U 90055A   13142.10417749  .00000688  00000-0  90654-4 0  8045
2 20663 062.7954 138.4484 0075206 174.0750 186.1250 14.87864810238214
Epoch (UTC): 22 May 2013 02:30:00
Eccentricity: 0.0075206
inclination: 62.7954°
perigee height: 552 km
apogee height: 657 km
right ascension of ascending node: 138.4484°
argument of perigee: 174.0750°
revolutions per day: 14.87864810
mean anomaly at epoch: 186.1250°
orbit number at epoch: 23821

The dashed part of the orbit path shows where the satellite is in the earth's shadow,  

Developed and maintained by Chris Peat, Heavens-Above GmbH. Please read the updated FAQ before sending e-mail. Imprint. DLR